sat.trackr.live / text

‹ back to catalog

STARLINK-2084

NORAD 47368 · 2021-005V

PAYLOAD ACTIVE UNKNOWN

§ Identity

Operator
Country
US
Launch date
2021-01-20
Launch site
AFETR
Launch vehicle
Mass (kg)
RCS (m²)

Purposes: comms

External: N2YO · Heavens-Above · Gunter

§ Orbital elements

Epoch: 2026-09-13T01:42:12.919968Z

Period
94.01 min
Inclination
53.1600°
Eccentricity
0.0001239
Mean motion
15.31702440 rev/d
Perigee alt
469.9 km
Apogee alt
471.6 km
Semi-major
6,848.9 km
B*
1.9349e-5
RAAN
270.4820°
Arg perigee
83.9588°
Mean anomaly
276.1554°
Rev number
31,174

§ Raw data

STARLINK-20841 47368U 21005V   26256.07098287  .00000235  00000+0  19349-4 0  99972 47368  53.1600 270.4820 0001239  83.9588 276.1554 15.31702440311747

JSON: /api/v1/satellites/47368 · /tle

For live sub-satellite position, see the globe view (requires WebGL).

§ Visibility from observer

Set your observer location to see the next 7 days of passes ≥ 10°. The values pass through the URL so the page stays shareable.

No JS? Fill the form by hand. The geolocation button needs JavaScript.